Location: Linz
(48.3300°N, 14.3000°E)
Time: 21:57:49
(UTC+01:00)

Envisat - Pass Details

Date: 11 November 2017
Orbit: 764 x 766 km, 98.2° (Epoch: 20 November)

Event Time Altitude Azimuth Distance (km) Brightness Sun altitude
Exits shadow 18:05:22 14° 35° (NE) 2,030 4.8 -16.1°
Drops below altitude 10° 18:06:49 10° 19° (NNE) 2,313 5.2 -16.3°
Sets 18:09:56 0° 359° (N) 3,244 6.2 -16.8°
